Torna al catalogo

OPS 4682 DEB

AttivoPO
NORAD 38419·DEBRIS·🇺🇸 United States

Lanciato Apr 3, 1965 da Vandenberg Space Force Base

Loading…

Prossimi Passaggi (prossime 24 ore)

TLE

AggiornatoSource: Space-Track

Epoca: Sep 14, 2026, 14:25 UTC

1 38419U 65027DY  26257.60080956  .00000351  00000-0  12209-2 0  9996
2 38419  90.2489   7.7791 0028756 303.0806  56.7553 12.95166839312645

Traccia OPS 4682 DEB in tempo reale con AllMySat

Download on the App Store